Weather History for Yuma MCAS, AZ

Change the Weather History Date:

Saturday, October 6, 2012

  Actual Average Record
Temperature  
Mean Temperature 84 °F 81 °F  
Max Temperature 97 °F 94 °F 108 °F (1980)
Min Temperature 70 °F 69 °F 46 °F (1913)
Degree Days  
Heating Degree Days 0 0  
Month to date heating degree days 0 0  
Since 1 July heating degree days 0 0  
Cooling Degree Days 19 16  
Month to date cooling degree days 141 104  
Year to date cooling degree days 4476 4278  
Growing Degree Days 34 (Base 50)    
Moisture  
Dew Point 50 °F    
Average Humidity 39    
Maximum Humidity 61    
Minimum Humidity 16    
Precipitation  
Precipitation 0.00 in 0.01 in 2.16 in (1972)
Month to date precipitation 0.00 0.06  
Year to date precipitation 2.34 2.68  
Sea Level Pressure  
Sea Level Pressure 29.80 in    
Wind  
Wind Speed 5 mph (SSW)    
Max Wind Speed 12 mph    
Max Gust Speed 14 mph    
Visibility 10 miles    
Events      
T = Trace of Precipitation, MM = Missing Value Source: NWS Daily Summary

Daily Weather History Graph

Daily Weather History Graph

Search for Another Location

Airport:

Trip Planner

Search our weather history database for the weather conditions in past years. The results will help you decide how hot, cold, wet, or windy it might be!

Date:

Astronomy

Oct. 06, 2012 Rise Set
Actual Time 6:36 AM MST 6:15 PM MST
Civil Twilight 6:11 AM MST 6:40 PM MST
Nautical Twilight 5:43 AM MST 7:08 PM MST
Astronomical Twilight 5:14 AM MST 7:37 PM MST
Moon 10:49 PM MST (10/6) 12:19 PM MST (10/6)
Length of Visible Light 12h 28m
Length of Day
11h 39m
Waning Gibbous, 64% of the Moon is Illuminated
Oct 6
Waning Gibbous
Oct 8
Last Quarter
Oct 15
New
Oct 21
First Quarter
Oct 29
Full

Hourly Weather History & Observations

Time (MST) Temp. Heat Index Dew Point Humidity Pressure Visibility Wind Dir Wind Speed Gust Speed Precip Events Conditions
12:55 AM 77.0 °F - 46.0 °F 33% 29.83 in 10.0 mi South 3.5 mph - N/A   Clear
1:55 AM 75.9 °F - 45.0 °F 33% 29.83 in 10.0 mi SSE 3.5 mph - N/A   Clear
2:55 AM 73.9 °F - 46.9 °F 38% 29.82 in 10.0 mi South 6.9 mph - N/A   Clear
3:55 AM 72.0 °F - 48.9 °F 44% 29.82 in 10.0 mi South 5.8 mph - N/A   Clear
4:55 AM 71.1 °F - 54.0 °F 55% 29.83 in 10.0 mi South 4.6 mph - N/A   Partly Cloudy
5:55 AM 71.1 °F - 57.9 °F 63% 29.83 in 10.0 mi SSE 4.6 mph - N/A   Partly Cloudy
6:55 AM 71.1 °F - 57.9 °F 63% 29.84 in 10.0 mi South 3.5 mph - N/A   Mostly Cloudy
7:55 AM 73.0 °F - 55.9 °F 55% 29.86 in 9.0 mi Calm Calm - N/A   Mostly Cloudy
8:55 AM 78.1 °F - 62.1 °F 58% 29.86 in 10.0 mi SSE 3.5 mph - N/A   Mostly Cloudy
9:55 AM 82.9 °F 84.0 °F 63.0 °F 51% 29.86 in 10.0 mi SSW 4.6 mph - N/A   Mostly Cloudy
10:55 AM 86.0 °F 84.7 °F 55.9 °F 36% 29.85 in 10.0 mi Calm Calm - N/A   Mostly Cloudy
11:55 AM 88.0 °F 86.1 °F 55.0 °F 32% 29.84 in 10.0 mi WSW 4.6 mph - N/A   Mostly Cloudy
12:55 PM 91.0 °F - 46.9 °F 22% 29.81 in 10.0 mi SW 5.8 mph - N/A   Mostly Cloudy
1:55 PM 93.9 °F - 46.0 °F 19% 29.78 in 10.0 mi Variable 4.6 mph - N/A   Mostly Cloudy
2:55 PM 93.9 °F - 45.0 °F 18% 29.77 in 10.0 mi SW 4.6 mph - N/A   Mostly Cloudy
3:55 PM 96.1 °F - 42.1 °F 15% 29.75 in 10.0 mi West 9.2 mph - N/A   Mostly Cloudy
4:55 PM 93.9 °F - 41.0 °F 16% 29.74 in 10.0 mi South 4.6 mph - N/A   Mostly Cloudy
5:55 PM 93.9 °F - 41.0 °F 16% 29.74 in 10.0 mi SSW 4.6 mph - N/A   Mostly Cloudy
6:55 PM 91.0 °F - 44.1 °F 20% 29.74 in 10.0 mi SSW 3.5 mph - N/A   Mostly Cloudy
7:55 PM 86.0 °F - 46.9 °F 26% 29.75 in 10.0 mi South 3.5 mph - N/A   Mostly Cloudy
8:55 PM 86.0 °F - 45.0 °F 24% 29.76 in 10.0 mi SSW 3.5 mph - N/A   Mostly Cloudy
9:55 PM 82.9 °F - 48.9 °F 31% 29.78 in 10.0 mi WSW 6.9 mph - N/A   Mostly Cloudy
10:55 PM 82.0 °F - 51.1 °F 34% 29.78 in 10.0 mi WSW 5.8 mph - N/A   Mostly Cloudy
11:55 PM 81.0 °F - 46.0 °F 29% 29.78 in 10.0 mi WSW 5.8 mph - N/A   Mostly Cloudy